Location: Icefog Observatory
(64.9000°N, 147.4000°W)
Time: 01:05:40
(UTC-08:00)

AO-73 - Visible Passes

Search period start: 16 September 2024 00:00
Search period end: 26 September 2024 00:00
Orbit: 552 x 616 km, 97.7° (Epoch: 15 September)

Date Brightness Start Highest point End Pass type
(mag) Time Alt. Az. Time Alt. Az. Time Alt. Az.
16 Sep ? 04:13:41 10° NE 04:17:07 24° E 04:20:29 10° SE visible
16 Sep ? 05:48:50 10° NNE 05:53:02 80° WNW 05:57:07 10° SSW visible
17 Sep ? 04:19:50 10° NNE 04:23:24 26° E 04:26:52 10° SSE visible
17 Sep ? 05:55:04 10° NNE 05:59:14 73° WNW 06:03:18 10° SSW visible
18 Sep ? 04:25:59 10° NNE 04:29:38 29° E 04:33:11 10° SSE visible
18 Sep ? 06:01:16 10° NNE 06:05:24 67° WNW 06:09:27 10° SSW visible
19 Sep ? 04:32:06 10° NNE 04:35:50 31° E 04:39:29 10° SSE visible
19 Sep ? 06:07:26 10° NNE 06:11:32 61° WNW 06:15:32 10° SW visible
20 Sep ? 04:38:12 10° NNE 04:42:00 34° E 04:45:43 10° SSE visible
20 Sep ? 06:13:35 10° NNE 06:17:38 55° WNW 06:21:36 10° SW visible
21 Sep ? 04:44:16 10° NNE 04:48:08 37° E 04:51:54 10° SSE visible
21 Sep ? 06:19:42 10° NNE 06:23:43 51° WNW 06:27:38 10° SW visible
22 Sep ? 03:17:15 10° ENE 03:17:40 10° ENE 03:18:05 10° E visible
22 Sep ? 04:50:19 10° NNE 04:54:14 41° E 04:58:03 10° S visible
22 Sep ? 06:25:47 10° NNE 06:29:45 46° WNW 06:33:37 10° SW visible
23 Sep ? 03:22:34 10° ENE 03:23:48 11° ENE 03:25:02 10° E visible
23 Sep ? 04:56:19 10° NNE 05:00:18 45° E 05:04:06 10° S visible
23 Sep ? 06:31:51 10° NNE 06:35:45 43° WNW 06:39:34 10° SW visible
24 Sep ? 03:28:14 10° NE 03:29:54 12° E 03:31:34 10° ESE visible
24 Sep ? 05:02:19 10° NNE 05:06:19 49° E 05:10:02 11° S visible
24 Sep ? 06:37:52 10° NNE 06:41:43 39° WNW 06:45:28 10° SW visible
25 Sep ? 03:33:58 10° NE 03:35:58 13° E 03:37:58 10° ESE visible
25 Sep ? 05:08:17 10° NNE 05:12:19 54° ESE 05:15:57 12° S visible
25 Sep ? 06:43:53 10° N 06:47:39 36° NW 06:51:21 10° WSW visible
